This is the latest recevied weather packets stored in our database for station/object DB0MI. If no packets are shown the sender has not sent any weather packets the latest 10 day(s).
| Time | Temp. | Humidity | Pressure | Rain* | Wind** | Luminosity | Snow |
|---|---|---|---|---|---|---|---|
| 1777446724 | 9.44° C | 47% | 1021.5 hPa | 0 mm | - | - | - |
| 1777446125 | 8.89° C | 48% | 1021.5 hPa | 0 mm | - | - | - |
| 1777445524 | 8.33° C | 49% | 1021.5 hPa | 0 mm | - | - | - |
| 1777444324 | 7.22° C | 50% | 1021.2 hPa | 0 mm | - | - | - |
| 1777443724 | 7.22° C | 50% | 1021.1 hPa | 0 mm | - | - | - |
| 1777443124 | 7.22° C | 49% | 1021 hPa | 0 mm | - | - | - |
| 1777442524 | 6.67° C | 50% | 1021 hPa | 0 mm | - | - | - |
| 1777441924 | 6.67° C | 50% | 1020.9 hPa | 0 mm | - | - | - |
| 1777441324 | 6.67° C | 49% | 1020.7 hPa | 0 mm | - | - | - |
| 1777440724 | 6.67° C | 49% | 1020.6 hPa | 0 mm | - | - | - |
| 1777440125 | 6.11° C | 49% | 1020.6 hPa | 0 mm | - | - | - |
| 1777439524 | 6.11° C | 49% | 1020.7 hPa | 0 mm | - | - | - |
| 1777438925 | 6.11° C | 49% | 1020.6 hPa | 0 mm | - | - | - |
| 1777438324 | 6.11° C | 49% | 1020.4 hPa | 0 mm | - | - | - |
| 1777437725 | 6.11° C | 48% | 1020.4 hPa | 0 mm | - | - | - |
| 1777437125 | 6.11° C | 48% | 1020.3 hPa | 0 mm | - | - | - |
| 1777436525 | 6.11° C | 48% | 1020.2 hPa | 0 mm | - | - | - |
| 1777435925 | 6.11° C | 48% | 1020.2 hPa | 0 mm | - | - | - |
| 1777435325 | 6.67° C | 48% | 1020.3 hPa | 0 mm | - | - | - |
| 1777434725 | 6.67° C | 47% | 1020.1 hPa | 0 mm | - | - | - |
| 1777434125 | 6.67° C | 47% | 1020 hPa | 0 mm | - | - | - |
| 1777433525 | 6.67° C | 47% | 1019.8 hPa | 0 mm | - | - | - |
| 1777432325 | 6.67° C | 47% | 1019.7 hPa | 0 mm | - | - | - |
| 1777429925 | 7.22° C | 45% | 1019.8 hPa | 0 mm | - | - | - |
| 1777429325 | 7.22° C | 45% | 1019.7 hPa | 0 mm | - | - | - |
* Rain latest hour (hover to see other rain measurements)
** Current wind speed in m/s (hover to see current wind gust speed)